Location: Newark
(48.4472°N, 1.4892°E)
Time: 10:45:22
(UTC+00:00)

Transit 4A - Pass Details

Date: 20 January 2021
Orbit: 866 x 978 km, 66.8° (Epoch: 26 February)

Event Time Altitude Azimuth Distance (km) Brightness Sun altitude
Exits shadow 03:48:14 38° 93° (E) 1,384 9.1 -37.4°
Drops below altitude 10° 03:52:15 10° 122° (ESE) 2,599 10.7 -36.7°
Sets 03:54:48 0° 127° (SE) 3,520 11.4 -36.3°
